When you browse on this site, cookies collect data to enhance your experience and personalize the content and advertising you see.
Visit our Privacy Policy to learn more. By continuing to use the site, you agree to this use of cookies and data.
  • în România
  • Lista ţărilor
  • Pe 7 zile
  • Temperatura apei
  • Hartă satelitară
  • Meteo pe hartă
  • Widget-uri
  • user-avatar
    Intrare

    Meteo pe oră la Barlinek

    Astăzi, 22 Mai, Miercuri

    Timp Temperatura Precipitaţii Vânt Presiune Umiditate
    00:00 +14°C° 0 mm 4 m/s 748 mmHg 93%
    01:00 +14°C° 0 mm 4 m/s 749 mmHg 94%
    02:00 +13°C° 0 mm 4 m/s 749 mmHg 95%
    03:00 +13°C° 0 mm 4 m/s 749 mmHg 95%
    04:00 +13°C° 0 mm 4 m/s 749 mmHg 95%
    05:00 +13°C° 0.1 mm 5 m/s 749 mmHg 94%
    06:00 +14°C° 0.1 mm 5 m/s 749 mmHg 93%
    07:00 +14°C° 0 mm 5 m/s 750 mmHg 92%
    08:00 +14°C° 0.1 mm 5 m/s 750 mmHg 91%
    09:00 +14°C° 0.1 mm 5 m/s 750 mmHg 91%
    10:00 +14°C° 0.1 mm 5 m/s 751 mmHg 91%
    11:00 +14°C° 0 mm 5 m/s 751 mmHg 89%
    12:00 +15°C° 0 mm 6 m/s 751 mmHg 87%
    13:00 +15°C° 0 mm 6 m/s 751 mmHg 84%
    14:00 +15°C° 0 mm 6 m/s 751 mmHg 85%
    15:00 +15°C° 0 mm 6 m/s 752 mmHg 85%
    16:00 +15°C° 0 mm 6 m/s 752 mmHg 85%
    17:00 +14°C° 0.1 mm 6 m/s 752 mmHg 86%
    18:00 +14°C° 0.1 mm 6 m/s 752 mmHg 87%
    19:00 +13°C° 0.1 mm 5 m/s 753 mmHg 88%
    20:00 +13°C° 0 mm 6 m/s 753 mmHg 88%
    21:00 +11°C° 0 mm 6 m/s 753 mmHg 88%
    22:00 +11°C° 0 mm 6 m/s 754 mmHg 88%
    23:00 +10°C° 0 mm 6 m/s 754 mmHg 87%

    Mâine, 23 Mai, Joi

    Timp Temperatura Precipitaţii Vânt Presiune Umiditate
    00:00 +10°C° 0 mm 6 m/s 754 mmHg 87%
    01:00 +10°C° 0 mm 6 m/s 755 mmHg 86%
    02:00 +10°C° 0 mm 6 m/s 755 mmHg 84%
    03:00 +10°C° 0 mm 6 m/s 755 mmHg 83%
    04:00 +9°C° 0 mm 6 m/s 755 mmHg 82%
    05:00 +10°C° 0 mm 6 m/s 755 mmHg 79%
    06:00 +10°C° 0 mm 6 m/s 756 mmHg 77%
    07:00 +10°C° 0 mm 6 m/s 756 mmHg 75%
    08:00 +13°C° 0 mm 6 m/s 756 mmHg 71%
    09:00 +14°C° 0 mm 6 m/s 756 mmHg 66%
    10:00 +15°C° 0 mm 6 m/s 757 mmHg 61%
    11:00 +16°C° 0 mm 5 m/s 757 mmHg 58%
    12:00 +17°C° 0 mm 5 m/s 757 mmHg 55%
    13:00 +17°C° 0 mm 5 m/s 756 mmHg 52%
    14:00 +17°C° 0 mm 5 m/s 756 mmHg 52%
    15:00 +17°C° 0 mm 5 m/s 756 mmHg 52%
    16:00 +17°C° 0 mm 5 m/s 756 mmHg 52%
    17:00 +17°C° 0 mm 4 m/s 756 mmHg 58%
    18:00 +16°C° 0 mm 3 m/s 756 mmHg 64%
    19:00 +15°C° 0 mm 2 m/s 756 mmHg 70%
    20:00 +13°C° 0 mm 2 m/s 756 mmHg 73%
    21:00 +12°C° 0 mm 1 m/s 756 mmHg 76%
    22:00 +9°C° 0 mm 0 m/s 756 mmHg 79%
    23:00 +10°C° 0 mm 1 m/s 756 mmHg 78%

    Poimâine, 24 Mai, Vineri

    Timp Temperatura Precipitaţii Vânt Presiune Umiditate
    00:00 +10°C° 0 mm 1 m/s 756 mmHg 77%
    01:00 +10°C° 0 mm 1 m/s 756 mmHg 76%
    02:00 +10°C° 0 mm 1 m/s 756 mmHg 77%
    03:00 +9°C° 0 mm 2 m/s 756 mmHg 78%
    04:00 +9°C° 0 mm 2 m/s 755 mmHg 79%
    05:00 +12°C° 0 mm 2 m/s 755 mmHg 77%
    06:00 +13°C° 0 mm 2 m/s 755 mmHg 74%
    07:00 +15°C° 0 mm 2 m/s 755 mmHg 72%
    08:00 +17°C° 0 mm 3 m/s 755 mmHg 68%
    09:00 +18°C° 0 mm 3 m/s 755 mmHg 63%
    10:00 +20°C° 0 mm 3 m/s 755 mmHg 59%
    11:00 +20°C° 0.1 mm 3 m/s 754 mmHg 58%
    12:00 +21°C° 0.1 mm 3 m/s 754 mmHg 56%
    13:00 +21°C° 0.1 mm 3 m/s 754 mmHg 54%
    14:00 +21°C° 0 mm 3 m/s 753 mmHg 54%
    15:00 +21°C° 0 mm 3 m/s 753 mmHg 54%
    16:00 +21°C° 0 mm 3 m/s 753 mmHg 55%
    17:00 +20°C° 0 mm 3 m/s 752 mmHg 60%
    18:00 +19°C° 0 mm 2 m/s 752 mmHg 66%
    19:00 +18°C° 0 mm 2 m/s 752 mmHg 71%
    20:00 +17°C° 0 mm 2 m/s 752 mmHg 76%
    21:00 +15°C° 0 mm 1 m/s 752 mmHg 80%
    22:00 +14°C° 0 mm 1 m/s 752 mmHg 85%
    23:00 +13°C° 0 mm 1 m/s 752 mmHg 87%

    25 Mai, Sâmbătă

    Timp Temperatura Precipitaţii Vânt Presiune Umiditate
    00:00 +13°C° 0 mm 2 m/s 752 mmHg 89%
    01:00 +13°C° 0 mm 2 m/s 752 mmHg 91%
    02:00 +12°C° 0 mm 2 m/s 752 mmHg 92%
    03:00 +12°C° 0 mm 2 m/s 752 mmHg 93%
    04:00 +10°C° 0 mm 2 m/s 752 mmHg 94%
    05:00 +11°C° 0 mm 3 m/s 753 mmHg 89%
    06:00 +11°C° 0 mm 3 m/s 753 mmHg 85%
    07:00 +12°C° 0 mm 4 m/s 753 mmHg 80%
    08:00 +13°C° 0 mm 4 m/s 753 mmHg 76%
    09:00 +14°C° 0 mm 4 m/s 753 mmHg 72%
    10:00 +15°C° 0 mm 5 m/s 753 mmHg 67%
    11:00 +15°C° 0 mm 5 m/s 753 mmHg 68%
    12:00 +15°C° 0 mm 5 m/s 753 mmHg 69%
    13:00 +14°C° 0 mm 5 m/s 753 mmHg 69%
    14:00 +14°C° 0 mm 5 m/s 753 mmHg 70%
    15:00 +14°C° 0 mm 5 m/s 753 mmHg 70%
    16:00 +14°C° 0 mm 5 m/s 753 mmHg 71%
    17:00 +14°C° 0 mm 4 m/s 753 mmHg 74%
    18:00 +13°C° 0 mm 3 m/s 753 mmHg 77%
    19:00 +13°C° 0 mm 3 m/s 753 mmHg 80%
    20:00 +12°C° 0 mm 3 m/s 753 mmHg 81%
    21:00 +11°C° 0 mm 3 m/s 753 mmHg 83%
    22:00 +11°C° 0 mm 3 m/s 753 mmHg 84%
    23:00 +10°C° 0 mm 4 m/s 753 mmHg 83%

    26 Mai, Duminică

    Timp Temperatura Precipitaţii Vânt Presiune Umiditate
    00:00 +10°C° 0 mm 4 m/s 753 mmHg 82%
    01:00 +9°C° 0 mm 5 m/s 752 mmHg 81%
    02:00 +9°C° 0 mm 5 m/s 752 mmHg 81%
    03:00 +9°C° 0 mm 5 m/s 752 mmHg 81%
    04:00 +9°C° 0 mm 5 m/s 752 mmHg 81%
    05:00 +9°C° 0 mm 5 m/s 751 mmHg 80%
    06:00 +9°C° 0 mm 6 m/s 751 mmHg 80%
    07:00 +9°C° 0 mm 6 m/s 751 mmHg 80%
    08:00 +9°C° 0.1 mm 6 m/s 751 mmHg 80%
    09:00 +9°C° 0.1 mm 6 m/s 751 mmHg 80%
    10:00 +9°C° 0.1 mm 6 m/s 751 mmHg 80%
    11:00 +9°C° 0.1 mm 6 m/s 751 mmHg 78%
    12:00 +9°C° 0.1 mm 7 m/s 751 mmHg 77%
    13:00 +9°C° 0.1 mm 7 m/s 751 mmHg 75%
    14:00 +9°C° 0.1 mm 7 m/s 751 mmHg 72%
    15:00 +10°C° 0.1 mm 7 m/s 751 mmHg 69%
    16:00 +10°C° 0.1 mm 8 m/s 751 mmHg 67%
    17:00 +10°C° 0 mm 7 m/s 751 mmHg 67%
    18:00 +9°C° 0 mm 6 m/s 751 mmHg 67%
    19:00 +9°C° 0 mm 5 m/s 751 mmHg 68%
    20:00 +9°C° 0 mm 5 m/s 751 mmHg 69%
    21:00 +8°C° 0 mm 4 m/s 751 mmHg 70%
    22:00 +8°C° 0 mm 4 m/s 752 mmHg 71%
    23:00 +7°C° 0 mm 4 m/s 752 mmHg 77%

    27 Mai, Luni

    Timp Temperatura Precipitaţii Vânt Presiune Umiditate
    00:00 +6°C° 0 mm 4 m/s 752 mmHg 84%
    01:00 +4°C° 0 mm 4 m/s 752 mmHg 91%
    02:00 +4°C° 0 mm 3 m/s 752 mmHg 92%
    03:00 +3°C° 0 mm 3 m/s 752 mmHg 93%
    04:00 +3°C° 0 mm 3 m/s 752 mmHg 94%
    05:00 +5°C° 0 mm 3 m/s 752 mmHg 88%
    06:00 +7°C° 0 mm 3 m/s 752 mmHg 81%
    07:00 +9°C° 0 mm 2 m/s 751 mmHg 75%
    08:00 +11°C° 0 mm 3 m/s 751 mmHg 69%
    09:00 +12°C° 0 mm 3 m/s 751 mmHg 63%
    10:00 +14°C° 0 mm 3 m/s 751 mmHg 57%
    11:00 +14°C° 0.3 mm 2 m/s 750 mmHg 63%
    12:00 +14°C° 0.3 mm 1 m/s 750 mmHg 69%
    13:00 +14°C° 0.3 mm 1 m/s 750 mmHg 75%
    14:00 +14°C° 0.5 mm 1 m/s 749 mmHg 80%
    15:00 +13°C° 0.5 mm 1 m/s 749 mmHg 85%
    16:00 +13°C° 0.5 mm 2 m/s 748 mmHg 90%
    17:00 +13°C° 0.3 mm 2 m/s 748 mmHg 91%
    18:00 +13°C° 0.3 mm 2 m/s 747 mmHg 92%
    19:00 +13°C° 0.3 mm 2 m/s 747 mmHg 93%
    20:00 +12°C° 0 mm 2 m/s 747 mmHg 94%
    21:00 +12°C° 0 mm 1 m/s 747 mmHg 94%
    22:00 +11°C° 0 mm 1 m/s 747 mmHg 95%
    23:00 +11°C° 0 mm 1 m/s 747 mmHg 96%
    Arată mai mult